Epoch 2023 Feb. 25.0 TT = JDT 2460000.5 T 2022 Apr. 25.18746 TT Rudenko q 4.6759154 (2000.0) P Q z +0.0016600 Peri. 48.26240 -0.60698050 +0.78272812 +/-0.0000008 Node 171.17146 +0.12817549 -0.07435580 e 0.9922381 Incl. 116.36100 +0.78431226 +0.61790606 H 13.5 >From 117 observations 2020 Feb. 2-2023 June 12, mean residual 0".4.
H = 13.5 G = 0.15